Location: Hope
(40.9110°N, 74.9680°W)
Time: 03:48:25
(UTC-04:00)

VELOX 1 - Pass Details

Date: 03 August 2021
Orbit: 626 x 643 km, 98.3° (Epoch: 26 September)

Event Time Altitude Azimuth Distance (km) Brightness Sun altitude
Exits shadow 05:06:13 - 196° (SSW) 2,482 ? -9.5°
Reaches altitude 10° 05:07:29 10° 203° (SSW) 2,022 ? -9.3°
Maximum altitude 05:11:20 29° 263° (W) 1,175 ? -8.7°
Drops below altitude 10° 05:15:13 10° 324° (NW) 2,043 ? -8.0°
Sets 05:17:41 0° 336° (NNW) 2,959 ? -7.6°
